Tracking 19177 objects as of 24-May-2018
HD Live streaming from Space Station
objects crossing your sky now

CZ-4C R/B

Track CZ-4C R/B now!
10-day predictions
CZ-4C R/B is classified as:


NORAD ID: 39211
Int'l Code: 2013-037D
Perigee: 473.0 km
Apogee: 645.8 km
Inclination: 97.9 °
Period: 95.7 minutes
Semi major axis: 6930 km
RCS: Unknown
Launch date: July 19, 2013
Source: People's Republic of China (PRC)
Launch site: Taiyaun Space Center, China (TSC)

Note: This is a ROCKET BODY
aabbcc
Your satellite tracking list
Your tracking list is empty




NASA's NSSDC Master Catalog

Two Line Element Set (TLE):
1 39211U 13037D   18143.28804059 +.00001151 +00000-0 +73534-4 0  9997
2 39211 097.9161 241.5786 0124687 234.6838 124.2678 15.04748959265405
Source of the keplerian elements: AFSPC